Total_Precipitation_Accumulation
0.18 0.28 0.71 0.90 0.96 0.94 0.97 0.99 1.03 0.96 0.94 0.98 0.99 1.03 1.05 1.05 1.02 0.98 0.99 1.07 1.15 1.18 1.16 1.26 1.29 1.20 1.03 0.84 0.69 0.62 0.57 0.57 0.57 0.60 0.65 0.71 0.72 0.73 0.68 0.59 0.51 0.56 0.75
0.19 0.28 0.62 0.87 1.00 1.00 1.05 1.04 1.06 0.97 0.94 1.01 1.08 1.09 1.08 1.05 1.03 1.04 1.08 1.14 1.22 1.24 1.20 1.20 1.20 1.13 1.02 0.84 0.70 0.60 0.55 0.50 0.43 0.40 0.43 0.50 0.63 0.76 0.71 0.63 0.59 0.72 0.78
0.18 0.28 0.54 0.87 1.01 1.03 1.06 1.05 1.07 0.98 0.95 0.98 1.09 1.17 1.18 1.15 1.07 1.12 1.16 1.21 1.27 1.30 1.25 1.19 1.12 1.02 0.85 0.75 0.71 0.63 0.57 0.47 0.35 0.27 0.28 0.35 0.54 0.77 0.70 0.68 0.68 0.77 0.80
0.19 0.32 0.51 0.82 1.02 1.09 1.09 1.06 1.05 1.01 1.05 1.06 1.10 1.18 1.20 1.16 1.08 1.10 1.18 1.20 1.26 1.31 1.32 1.25 1.13 1.04 0.85 0.74 0.72 0.67 0.59 0.46 0.33 0.23 0.17 0.28 0.53 0.86 0.85 0.81 0.78 0.77 0.78
0.25 0.36 0.58 0.88 1.07 1.15 1.15 1.09 1.05 1.05 1.09 1.13 1.15 1.22 1.23 1.22 1.12 1.06 1.06 1.10 1.16 1.21 1.25 1.28 1.11 1.00 0.88 0.76 0.69 0.65 0.64 0.53 0.34 0.19 0.15 0.22 0.49 0.95 0.96 0.88 0.82 0.78 0.73
0.28 0.37 0.60 0.90 1.11 1.15 1.15 1.15 1.08 1.09 1.15 1.17 1.20 1.30 1.31 1.27 1.19 1.11 1.06 1.05 1.02 1.06 1.13 1.15 1.07 1.01 0.90 0.78 0.74 0.74 0.74 0.65 0.34 0.15 0.14 0.20 0.46 0.93 1.00 0.89 0.81 0.77 0.75
0.37 0.46 0.66 0.95 1.17 1.23 1.25 1.24 1.20 1.18 1.22 1.26 1.26 1.32 1.40 1.34 1.32 1.21 1.09 1.03 0.96 0.94 0.97 1.00 0.96 0.96 0.92 0.83 0.81 0.82 0.85 0.67 0.34 0.23 0.20 0.22 0.45 1.01 1.24 1.07 0.90 0.82 0.80
0.46 0.60 0.79 1.13 1.31 1.42 1.46 1.41 1.38 1.40 1.44 1.42 1.42 1.44 1.49 1.43 1.35 1.28 1.15 1.07 1.02 1.00 1.00 0.97 0.93 0.92 0.92 0.89 0.84 0.84 0.80 0.54 0.32 0.30 0.29 0.31 0.57 1.16 1.44 1.39 1.15 0.94 0.85
0.56 0.72 0.86 1.08 1.32 1.59 1.74 1.73 1.64 1.59 1.60 1.58 1.55 1.57 1.58 1.55 1.51 1.44 1.33 1.20 1.16 1.13 1.09 0.98 0.87 0.81 0.81 0.84 0.81 0.74 0.62 0.44 0.27 0.32 0.33 0.43 0.61 1.15 1.41 1.48 1.35 1.18 1.03
0.69 0.82 0.97 1.14 1.32 1.54 1.74 1.88 1.79 1.66 1.63 1.69 1.70 1.65 1.67 1.63 1.63 1.60 1.45 1.29 1.21 1.19 1.11 1.02 0.93 0.85 0.76 0.71 0.65 0.58 0.46 0.35 0.26 0.32 0.45 0.46 0.60 1.15 1.42 1.47 1.36 1.27 1.17
0.84 0.95 1.06 1.25 1.39 1.60 1.79 1.83 1.86 1.80 1.75 1.75 1.69 1.64 1.66 1.62 1.57 1.53 1.38 1.34 1.30 1.26 1.19 1.13 1.04 0.91 0.77 0.63 0.56 0.49 0.38 0.28 0.28 0.41 0.45 0.49 0.74 1.24 1.48 1.48 1.40 1.31 1.28
0.88 1.01 1.10 1.28 1.40 1.59 1.62 1.78 1.93 1.84 1.77 1.72 1.58 1.57 1.52 1.53 1.55 1.44 1.42 1.39 1.37 1.35 1.32 1.29 1.20 1.06 0.88 0.68 0.61 0.54 0.35 0.26 0.26 0.27 0.30 0.41 0.77 1.29 1.50 1.48 1.49 1.46 1.44
0.85 1.06 1.15 1.31 1.45 1.56 1.62 1.65 1.79 1.81 1.76 1.70 1.62 1.58 1.57 1.61 1.65 1.56 1.48 1.48 1.41 1.35 1.34 1.34 1.28 1.06 0.92 0.81 0.74 0.57 0.40 0.32 0.26 0.22 0.23 0.32 0.53 0.90 1.30 1.47 1.52 1.55 1.57
0.92 1.10 1.24 1.44 1.58 1.62 1.68 1.72 1.74 1.82 1.80 1.70 1.67 1.64 1.63 1.62 1.61 1.56 1.43 1.37 1.34 1.35 1.36 1.34 1.28 1.12 0.98 0.82 0.74 0.61 0.49 0.38 0.30 0.26 0.22 0.26 0.37 0.57 0.92 1.24 1.40 1.53 1.66
0.97 1.14 1.33 1.55 1.67 1.71 1.76 1.82 1.80 1.79 1.75 1.71 1.64 1.64 1.59 1.55 1.53 1.51 1.42 1.37 1.36 1.31 1.25 1.21 1.17 1.09 0.97 0.86 0.76 0.64 0.58 0.50 0.41 0.34 0.28 0.28 0.29 0.39 0.66 0.98 1.23 1.48 1.69
1.02 1.16 1.37 1.57 1.69 1.75 1.76 1.78 1.76 1.78 1.74 1.72 1.65 1.56 1.54 1.53 1.51 1.50 1.48 1.44 1.40 1.36 1.30 1.24 1.17 1.13 1.01 0.90 0.79 0.69 0.63 0.57 0.50 0.43 0.36 0.35 0.34 0.37 0.52 0.76 1.03 1.39 1.69
1.10 1.28 1.50 1.69 1.82 1.84 1.83 1.84 1.83 1.78 1.77 1.72 1.67 1.67 1.60 1.53 1.48 1.48 1.49 1.46 1.38 1.34 1.33 1.31 1.30 1.29 1.19 1.05 0.91 0.80 0.70 0.61 0.54 0.46 0.42 0.41 0.40 0.41 0.47 0.61 0.77 1.07 1.47
1.22 1.36 1.55 1.80 1.92 1.90 1.91 1.93 1.94 1.84 1.77 1.78 1.72 1.71 1.68 1.62 1.56 1.60 1.57 1.49 1.44 1.45 1.37 1.29 1.26 1.26 1.21 1.12 1.03 0.94 0.81 0.70 0.60 0.52 0.46 0.43 0.45 0.44 0.44 0.51 0.61 0.80 1.17
1.22 1.28 1.51 1.78 1.93 1.94 1.98 1.98 2.04 2.01 1.90 1.87 1.83 1.74 1.68 1.66 1.61 1.63 1.63 1.57 1.52 1.55 1.51 1.38 1.28 1.18 1.11 1.04 0.97 0.93 0.86 0.81 0.79 0.75 0.65 0.54 0.48 0.50 0.53 0.54 0.58 0.64 0.85
1.31 1.40 1.52 1.78 1.92 2.05 2.13 2.17 2.16 2.14 2.05 1.98 1.93 1.77 1.68 1.69 1.70 1.65 1.61 1.56 1.53 1.52 1.53 1.49 1.39 1.27 1.13 1.04 1.00 0.93 0.83 0.76 0.75 0.71 0.67 0.61 0.52 0.48 0.56 0.61 0.61 0.59 0.65
1.34 1.43 1.51 1.70 1.80 2.03 2.20 2.13 2.06 2.01 1.99 1.94 1.90 1.90 1.83 1.84 1.84 1.78 1.71 1.68 1.62 1.53 1.41 1.41 1.42 1.43 1.35 1.25 1.26 1.15 0.95 0.80 0.72 0.65 0.62 0.59 0.53 0.47 0.49 0.58 0.65 0.62 0.57
1.22 1.29 1.37 1.58 1.77 1.94 2.09 2.07 1.98 1.96 1.94 1.92 1.87 1.93 2.01 2.02 1.99 1.89 1.75 1.71 1.69 1.63 1.52 1.40 1.40 1.44 1.38 1.37 1.41 1.44 1.27 1.06 0.83 0.63 0.58 0.56 0.53 0.53 0.53 0.54 0.61 0.66 0.63
1.11 1.17 1.30 1.54 1.73 1.96 2.13 2.28 2.24 2.24 2.23 2.15 2.01 1.90 1.89 1.93 1.88 1.81 1.71 1.65 1.67 1.67 1.61 1.48 1.39 1.37 1.35 1.27 1.26 1.52 1.51 1.17 0.82 0.65 0.59 0.57 0.55 0.56 0.56 0.55 0.56 0.61 0.67
1.00 1.09 1.22 1.53 1.77 1.95 2.12 2.22 2.28 2.24 2.17 2.05 1.93 1.86 1.80 1.75 1.75 1.72 1.70 1.63 1.55 1.52 1.46 1.41 1.37 1.33 1.32 1.31 1.26 1.23 1.25 1.15 1.08 0.83 0.61 0.57 0.58 0.61 0.62 0.61 0.61 0.64 0.69
1.00 1.04 1.14 1.37 1.63 1.86 2.06 2.13 2.21 2.18 2.09 2.05 2.05 2.02 2.00 1.91 1.80 1.76 1.71 1.71 1.62 1.52 1.43 1.40 1.40 1.38 1.35 1.29 1.23 1.14 1.09 1.01 0.99 1.04 0.79 0.61 0.61 0.59 0.61 0.65 0.67 0.68 0.71
1.08 1.12 1.16 1.26 1.46 1.72 1.91 1.99 2.02 2.05 2.01 1.99 2.04 2.03 2.01 1.92 1.80 1.69 1.67 1.66 1.62 1.51 1.39 1.35 1.36 1.39 1.38 1.31 1.21 1.14 1.14 1.10 0.98 1.02 0.94 0.71 0.67 0.63 0.63 0.67 0.72 0.72 0.71